Regional Weather Roundup
Issued by NWS Goodland, KS

Home | Current Version | Previous Version | Text Only | Print | Product List | Glossary Off
Versions: 1 2 3 4 5 6 7 8 9 10 11 12 13 14 15 16 17 18 19 20 21 22 23 24 25 26 27 28 29 30 31 32 33 34 35 36 37 38 39 40 41 42 43 44 45 46 47 48 49 50

000
ASUS43 KGLD 180359
RWRGLD

GOODLAND FORECAST AREA HOURLY WEATHER ROUNDUP
NATIONAL WEATHER SERVICE GOODLAND KS
1000 PM MDT TUE OCT 17 2017

...OFFICIAL OBSERVATIONS...

CITY           SKY/WX    TMP DP  RH WIND       PRES   REMARKS
GOODLAND KS    CLEAR     55  30  38 S13       30.03S
HILL CITY KS   CLEAR     59  42  53 SW5       30.01F
IMPERIAL NEB   CLEAR     53  27  36 SW8       29.99S
MCCOOK NEB     CLEAR     59  35  40 S9        29.97F
AKRON CO       CLEAR     56  21  25 SW13      30.05S
BURLINGTON CO  CLOUDY    49  29  46 S12       30.07S
LIMON CO       CLOUDY    34  27  75 N7        30.13S
$$

...UNOFFICIAL OBSERVATIONS...

CITY           SKY/WX    TMP DP  RH WIND       PRES   REMARKS
NORTON KS      CLEAR     57  32  38 S10       29.98
SHARON SPRINGS   N/A     54  37  52 S6          N/A
TRENTON NEB      N/A     54  32  43 CALM        N/A
KIT CARSON CO    N/A     47  28  48 CALM        N/A
YUMA CO        FAIR      48  27  43 SW12      30.03R
$$




USA.gov is the U.S. government's official web portal to all federal, state and local government web resources and services.